Location: Unspecified
(0.0000°N, 0.0000°E)
Time: 19:01:42
(UTC+00:00)

Vanguard 3 - Pass Details

Date: 25 November 2019
Orbit: 508 x 3263 km, 33.3° (Epoch: 08 December)

Event Time Altitude Azimuth Distance (km) Brightness Sun altitude
Rises 16:00:51 0° 316° (NW) 7,219 12.3 24.7°
Reaches altitude 10° 16:08:16 10° 331° (NNW) 6,138 11.8 23.0°
Maximum altitude 16:20:43 20° 12° (NNE) 4,791 10.9 20.1°
Drops below altitude 10° 16:30:42 10° 54° (NE) 4,872 10.6 17.8°
Sets 16:35:27 0° 70° (ENE) 5,408 10.7 16.7°
